Zurück zum Katalog

COSMOS 1595

GLONASS

AktivNavigationMEO
NORAD 15261·PAYLOAD·🇷🇺 Russia

Gestartet Sep 4, 1984 von Baikonur Cosmodrome

Loading…

Nächste Überflüge (nächste 24 Stunden)

TLE

AlterndSource: Space-Track

Epoche: Aug 29, 2026, 21:14 UTC

1 15261U 84095C   26241.88484604  .00000029  00000-0  00000+0 0  9998
2 15261  64.8575  68.6779 0047913 217.3670 320.4342  2.13102090301094

Verfolge COSMOS 1595 in Echtzeit mit AllMySat

Download on the App Store